Theta_e
324 325 325 325 325 325 326 326 325 325 326 327 326 326 326 326 326 325 326 326 326 326 327 327 328 328 329 330 330 330 330 331 331 330 328 329 330 331 330 331 329 328 327 326 326 326 326 326 326 326 326 325 325 326 326 326 326 326 326 325 325 325 325 325 325 325 325 325 325
324 324 324 321 321 324 326 325 325 325 326 327 327 327 327 326 326 326 326 326 326 326 327 327 328 329 329 330 330 331 331 330 331 331 330 330 331 330 330 330 330 328 327 327 327 326 326 326 326 325 325 326 325 326 326 326 326 326 326 325 325 325 325 325 325 325 326 326 326
323 323 324 324 325 325 325 325 326 327 328 327 328 327 327 327 326 326 326 326 327 327 327 328 328 329 330 330 331 331 331 331 331 331 331 331 331 330 330 330 330 329 327 327 328 327 327 327 326 324 324 325 325 326 326 327 326 325 326 325 326 325 325 325 325 326 326 326 326
321 322 323 324 325 325 325 325 326 326 328 327 327 327 327 327 326 327 327 327 328 328 328 328 329 330 330 330 331 331 331 329 330 330 331 331 331 331 331 330 330 329 329 329 328 329 328 328 326 325 325 326 326 326 326 326 326 325 325 325 326 325 325 325 324 325 325 325 326
319 320 321 322 323 324 325 325 326 326 326 327 327 327 327 327 327 327 327 327 327 328 328 329 330 330 330 330 330 330 330 330 326 327 330 330 331 331 330 330 329 329 329 329 329 328 328 328 327 327 327 326 326 326 326 327 326 325 325 326 326 326 326 325 325 324 324 325 325
317 319 320 321 322 323 324 324 325 326 326 326 326 326 326 327 327 327 327 327 328 329 329 327 327 327 327 329 329 329 329 329 327 327 328 328 329 329 330 329 329 329 329 329 329 329 329 329 328 328 327 327 327 327 326 327 326 325 325 324 325 325 326 325 324 324 324 324 325
317 318 319 321 322 322 323 324 325 325 326 326 326 326 327 327 327 328 328 328 328 328 327 325 325 325 326 326 326 326 325 325 325 325 325 325 326 327 327 328 328 329 329 329 329 329 329 328 327 326 325 324 326 327 328 327 326 325 325 325 325 325 326 325 325 325 325 324 324
317 318 319 321 321 322 322 323 324 325 325 325 325 326 327 328 328 327 327 327 327 326 325 324 325 325 324 323 323 323 323 323 323 322 322 322 323 323 324 324 325 326 327 327 328 328 328 328 327 325 325 324 324 325 326 327 326 326 326 325 325 326 325 325 326 325 325 324 324
316 318 319 320 321 321 322 322 323 324 324 324 324 325 326 326 326 326 326 326 325 325 323 322 321 321 321 321 320 320 320 320 320 320 320 319 319 320 320 320 321 321 323 324 325 325 326 326 325 325 325 324 324 324 325 326 325 325 325 325 325 324 324 325 325 325 325 325 324
314 316 317 318 319 319 319 320 320 321 322 322 323 323 323 320 321 323 324 324 322 321 320 319 318 317 316 316 316 316 316 316 316 316 316 316 315 315 316 316 316 317 317 319 320 321 322 322 322 323 323 324 324 324 325 325 325 324 324 324 323 323 324 324 324 324 323 323 322
312 313 314 315 316 316 316 317 317 317 318 319 320 320 321 319 320 320 320 319 318 317 317 316 315 314 313 313 313 313 313 313 313 313 313 312 312 312 312 312 312 313 313 314 315 316 316 317 317 319 320 321 322 322 323 324 324 324 324 324 324 323 323 323 323 323 322 322 322
309 311 312 313 314 313 313 313 313 313 314 315 316 317 318 319 318 317 315 314 314 314 314 314 312 312 311 311 311 310 310 311 310 310 309 309 310 310 310 310 310 310 311 311 312 312 312 312 313 314 316 317 317 318 319 321 321 322 322 322 323 323 323 323 323 323 323 323 322
307 309 310 310 311 310 310 310 311 311 312 312 313 314 314 315 314 313 312 312 311 311 311 311 310 309 309 309 308 309 309 309 308 308 308 308 308 308 308 308 309 309 309 310 310 310 310 310 311 312 312 313 314 315 316 317 318 319 320 320 321 321 321 322 322 323 323 323 322
306 307 307 308 308 308 307 308 308 308 309 310 310 311 311 312 310 309 309 309 309 308 308 308 308 307 307 307 307 307 308 308 308 308 308 307 308 308 308 308 309 309 309 309 310 310 310 310 310 310 311 311 312 313 314 315 316 316 317 318 318 319 319 320 321 321 322 321 321
305 305 306 306 306 306 305 305 306 306 307 308 308 309 309 309 307 306 306 306 306 307 307 306 306 306 306 307 307 307 308 308 308 308 308 309 309 309 309 309 309 310 310 310 310 310 310 310 310 310 310 310 311 312 313 313 314 315 316 316 317 317 318 319 319 319 319 320 320
304 305 305 305 305 304 304 304 305 305 306 306 307 307 307 306 306 305 304 305 305 305 306 306 306 307 308 307 307 308 308 309 309 309 309 310 310 310 310 310 311 311 310 310 310 310 311 311 311 311 310 310 311 311 312 313 313 314 314 315 316 317 317 317 318 319 319 319 318
304 304 304 304 304 304 304 304 304 304 305 306 306 306 306 305 305 304 303 303 304 305 306 306 307 308 309 308 309 309 309 309 309 310 310 310 310 311 311 311 311 311 311 311 310 311 311 311 312 311 312 312 312 312 312 313 313 313 314 314 315 316 317 316 317 318 318 318 317
304 304 304 304 304 304 304 304 305 305 305 306 306 306 306 306 306 306 305 304 305 306 307 308 309 309 310 310 310 309 309 309 309 309 310 310 311 311 311 311 312 312 312 311 311 311 311 312 312 313 313 313 313 313 313 313 313 313 313 314 315 315 316 316 316 317 317 317 317
304 304 305 304 304 304 304 304 305 305 306 306 306 306 306 306 308 308 308 307 306 307 308 309 309 310 310 310 310 309 308 308 309 309 309 310 310 310 310 311 311 311 311 311 311 312 312 312 312 313 314 314 314 314 314 314 314 314 314 314 314 314 314 315 316 316 317 317 317
304 305 305 305 305 305 305 305 305 306 306 307 307 307 308 308 309 309 308 308 307 308 308 309 309 309 309 310 310 309 308 308 308 308 308 309 309 309 309 309 309 309 309 310 310 311 311 312 312 313 314 314 314 315 315 314 314 314 314 313 313 314 314 314 315 316 317 317 318
305 305 305 306 306 306 306 306 306 306 307 307 307 308 309 309 309 308 308 308 308 308 308 308 308 309 309 309 309 308 308 307 308 308 307 308 308 308 308 308 308 308 309 309 309 310 311 312 313 314 314 314 314 315 315 315 315 314 314 314 314 314 314 315 316 317 317 318 319
305 305 306 306 306 306 306 306 306 306 306 307 307 307 308 308 308 308 308 308 308 308 308 308 308 308 308 308 308 307 307 307 307 307 306 306 307 307 307 307 308 308 308 308 309 309 310 312 312 313 314 314 315 315 314 315 315 315 315 315 315 315 315 316 316 316 316 316 316
305 306 306 306 306 306 305 306 306 307 307 307 307 308 308 308 308 308 307 307 307 307 307 307 307 307 307 307 307 307 306 306 306 306 306 306 306 306 306 307 307 307 307 308 308 309 309 310 311 312 313 313 314 314 315 315 315 315 316 316 316 315 315 314 312 312 312 312 311
305 306 306 306 306 306 306 305 306 307 307 307 307 308 308 307 307 307 307 307 307 307 307 307 306 306 306 306 306 306 306 305 304 304 304 305 305 305 305 305 306 306 306 307 307 306 306 306 308 309 310 311 312 314 314 315 315 315 315 316 315 313 311 309 308 307 307 306 305
306 307 308 308 308 307 307 306 306 306 306 307 307 307 307 307 307 306 306 306 306 306 306 306 305 305 306 305 305 305 304 304 303 303 303 303 303 304 304 304 304 305 305 305 300 297 296 296 300 303 305 307 310 311 313 314 314 314 314 314 312 310 308 307 305 303 303 302 301
306 307 307 307 307 306 306 306 305 306 306 307 307 307 307 307 306 306 305 305 305 305 305 304 304 304 303 304 304 303 303 303 302 302 302 302 302 303 303 304 304 305 304 298 295 294 294 295 296 296 298 303 306 308 310 312 312 312 312 311 310 309 307 306 303 301 300 300 299
307 307 306 306 305 305 305 305 305 305 305 306 306 307 306 305 304 304 304 304 304 304 304 304 304 301 300 302 302 301 301 301 301 301 301 301 302 302 302 303 304 305 302 293 293 294 296 296 296 295 296 300 304 306 308 309 309 309 309 308 308 308 307 306 303 301 299 299 298
307 306 306 305 304 304 304 304 305 305 305 306 306 307 306 301 301 300 301 301 301 302 302 302 302 301 300 300 300 300 300 300 300 301 301 301 301 302 302 302 304 302 298 294 295 295 296 297 297 296 296 295 301 305 307 308 307 307 306 306 306 306 305 303 301 299 298 297 297
306 305 304 304 303 303 303 303 303 304 305 305 304 303 300 295 296 296 297 298 298 298 299 299 300 300 300 299 300 300 300 300 300 301 301 301 301 301 301 302 302 300 297 294 295 296 296 296 296 297 296 296 299 302 305 306 306 305 304 305 305 304 303 301 299 297 296 296 296
306 304 302 301 299 299 299 301 302 302 301 300 297 293 291 290 291 292 293 295 295 296 297 299 299 299 299 299 300 300 300 300 301 301 301 300 300 300 300 300 301 300 297 294 295 295 296 296 296 296 296 296 297 299 302 303 304 304 305 305 304 303 302 300 298 297 296 296 295
305 303 301 299 297 296 296 296 296 295 293 292 291 290 290 292 291 292 293 293 294 295 296 298 298 298 298 299 300 300 300 301 301 301 301 300 299 299 300 300 301 299 296 294 295 295 295 295 295 295 296 296 295 296 298 298 301 303 304 304 303 302 300 299 298 297 297 296 295
303 301 300 298 297 295 293 291 290 289 288 288 288 288 289 293 293 294 294 294 294 295 296 297 297 297 298 298 299 299 300 300 300 300 300 300 300 299 300 300 300 298 295 294 295 295 295 295 295 295 295 295 293 293 293 294 297 299 300 300 300 299 299 298 297 297 297 296 296
300 298 297 296 295 293 290 288 288 288 288 287 287 287 288 291 292 294 294 294 295 295 296 296 296 296 297 298 298 299 299 299 299 299 298 298 299 299 299 299 300 298 295 294 295 295 295 294 294 294 294 293 292 291 292 295 294 295 296 296 296 297 297 297 297 297 296 296 296
299 296 294 294 291 289 288 287 286 287 287 287 287 287 287 289 290 291 292 294 295 296 297 297 297 297 297 298 298 298 298 298 298 298 298 297 298 298 298 298 298 297 295 294 294 294 294 294 294 293 292 288 289 291 294 294 293 293 293 293 293 293 293 294 295 295 295 295 296
299 295 292 290 288 287 286 286 286 286 286 286 286 287 288 289 289 290 292 293 295 296 297 297 298 298 298 298 298 297 297 297 296 295 295 296 297 297 297 297 297 295 294 294 294 294 294 294 294 293 293 291 291 292 294 293 293 292 292 291 291 290 290 291 291 292 293 294 295
297 293 289 288 287 286 286 286 286 286 286 286 286 287 288 290 291 292 292 293 294 295 296 297 298 298 297 298 295 294 294 295 293 291 290 292 294 296 297 297 296 295 293 293 293 293 293 293 293 293 293 293 292 292 293 292 291 291 291 290 290 289 289 289 290 291 292 292 293
294 290 288 287 286 286 286 286 286 286 286 286 287 288 289 290 291 292 293 294 294 295 296 296 297 297 297 297 295 295 295 295 291 289 287 288 290 293 296 297 296 294 293 293 293 293 293 293 293 293 293 292 292 292 292 291 290 290 289 289 289 289 289 289 288 289 289 290 290
292 289 287 287 286 286 286 286 286 286 286 286 288 289 290 291 292 293 294 294 295 295 296 296 296 296 296 296 295 294 293 294 292 289 287 287 288 290 294 296 295 293 292 292 293 293 293 293 293 293 293 292 293 292 292 291 290 289 289 288 288 288 288 288 288 288 288 288 287
291 289 288 286 286 286 286 286 286 286 286 287 289 290 291 292 293 294 294 295 295 296 296 296 296 295 295 294 295 293 291 292 291 289 287 286 286 288 291 295 294 292 291 291 292 292 292 293 293 293 292 291 292 292 292 291 289 289 288 287 287 287 287 288 288 288 287 287 286
289 288 287 286 286 286 286 286 286 286 287 288 289 290 291 292 293 294 295 295 296 296 296 296 296 295 295 293 294 293 292 292 291 288 286 286 286 287 289 291 292 292 291 291 292 292 292 292 292 292 292 291 292 292 291 291 289 288 287 287 287 287 287 287 288 288 288 288 287
288 287 286 286 286 286 286 286 286 288 289 289 289 290 291 292 293 294 295 295 295 295 295 296 296 295 294 293 293 292 291 291 292 289 287 286 286 286 287 289 291 291 291 291 291 292 292 292 292 292 291 291 292 292 291 290 289 288 287 287 287 287 287 287 288 288 288 288 288
Wind_Speed
10 9 8 8 7 7 7 7 7 6 7 7 7 7 7 6 6 6 6 6 6 5 5 5 5 6 6 8 9 10 10 11 11 11 10 11 11 11 11 11 11 11 10 10 10 9 9 9 8 7 6 6 7 7 8 7 8 8 9 10 9 8 9 10 11 11 11 10 9
10 10 9 7 7 7 7 7 6 6 7 7 7 7 7 6 6 6 6 6 6 5 5 5 5 6 7 8 8 9 9 10 11 11 10 11 12 12 11 11 11 11 12 12 11 10 9 9 8 7 6 6 7 7 8 8 8 10 11 13 10 9 8 9 10 11 11 11 9
9 9 9 8 8 8 7 7 7 7 8 7 7 6 6 6 6 6 6 6 6 6 6 5 5 6 7 8 7 7 8 8 10 10 10 10 11 11 11 10 11 11 12 11 11 10 9 9 8 7 6 7 7 7 8 8 8 10 11 13 10 9 8 8 9 10 9 8 9
9 9 9 10 11 10 9 8 8 8 8 7 7 7 6 6 6 6 6 7 7 7 6 6 6 6 6 7 7 7 7 7 8 9 10 10 10 11 11 11 11 11 11 11 11 10 10 9 7 7 7 8 9 9 8 7 8 8 9 10 9 9 9 9 9 8 8 8 9
9 9 9 9 11 10 9 8 8 8 7 6 6 6 6 6 6 6 6 6 6 6 6 7 6 5 6 6 7 7 7 7 6 7 8 9 9 10 11 11 11 11 11 11 11 11 10 10 7 7 7 8 8 8 8 9 9 8 8 7 8 8 9 9 9 8 7 7 7
8 8 8 8 9 9 9 8 9 8 7 6 7 7 7 6 6 6 6 6 6 6 6 6 6 5 5 6 6 6 6 6 5 6 7 9 9 9 10 11 11 11 10 10 11 11 11 11 8 7 7 7 7 8 8 9 9 8 8 7 7 7 7 8 8 7 7 7 8
8 8 8 8 8 8 8 8 8 8 7 7 8 8 8 7 7 7 7 6 5 5 5 4 5 5 5 5 5 6 6 6 6 7 8 8 8 8 9 10 10 9 9 9 10 10 10 10 8 8 7 7 7 8 9 9 9 9 8 8 6 6 7 8 7 7 7 8 9
7 7 7 7 7 8 8 8 7 7 7 7 8 8 9 8 8 8 7 6 6 6 5 3 4 5 6 6 6 7 7 8 8 8 8 8 8 9 10 10 10 9 9 9 9 9 9 9 8 8 9 8 8 9 10 11 11 11 10 10 9 8 7 7 7 7 7 9 10
6 6 6 5 6 7 7 8 7 7 7 7 8 8 8 8 8 8 8 7 6 5 4 3 4 4 5 6 6 6 7 7 8 8 8 8 9 9 9 9 9 9 8 8 9 9 10 8 8 8 9 8 8 8 9 11 12 12 12 12 11 10 9 9 9 9 9 10 11
6 6 6 5 6 6 6 6 6 7 7 8 8 8 7 6 6 7 6 5 3 3 3 3 3 4 5 5 5 5 5 6 6 7 7 7 7 8 8 7 8 8 8 8 8 9 9 9 8 9 9 8 9 9 9 10 11 12 12 10 10 11 12 11 12 12 12 11 12
7 6 6 6 6 6 6 6 6 6 7 7 8 8 7 6 5 5 4 3 3 4 4 4 4 4 5 5 5 5 5 5 6 6 7 7 7 7 6 6 7 7 7 7 7 7 8 8 9 10 10 10 10 10 10 10 11 11 11 10 10 11 12 13 12 12 12 12 13
7 7 6 6 6 6 6 6 6 6 7 8 8 8 7 6 6 5 4 4 5 5 5 4 4 4 5 4 5 5 5 6 6 6 7 7 7 7 7 7 7 7 7 7 7 6 7 8 9 10 11 11 10 9 10 11 11 12 12 12 12 12 12 12 12 11 10 10 11
7 6 6 6 6 6 6 6 6 6 7 8 8 7 7 6 5 5 5 5 6 5 4 3 3 4 4 4 4 4 5 5 6 6 6 6 6 6 7 7 7 7 7 7 7 6 7 8 9 10 10 11 10 9 9 10 11 12 12 13 13 13 13 13 13 12 12 12 11
6 6 6 6 6 6 6 7 6 6 7 8 8 7 7 6 5 5 5 6 6 5 4 4 3 3 4 4 4 4 4 4 5 5 6 6 5 6 6 7 7 7 7 7 7 7 7 8 8 9 10 10 10 10 10 10 11 11 12 13 14 14 14 13 13 13 13 14 13
6 6 6 6 6 6 6 7 6 6 7 7 7 7 6 6 5 5 5 6 6 5 4 4 4 4 4 4 5 5 5 5 5 6 6 6 6 6 6 7 7 7 7 7 7 7 8 9 9 9 10 10 10 10 10 10 11 11 12 12 13 13 13 13 12 12 12 13 13
7 7 6 6 7 7 6 7 6 6 6 7 6 6 6 5 5 5 6 6 6 5 5 6 5 5 5 5 5 5 5 5 6 6 6 6 6 6 7 7 7 7 8 8 8 8 9 9 9 10 10 10 10 10 10 10 11 11 12 12 12 12 12 12 12 12 12 12 12
7 7 7 7 8 8 7 7 6 6 6 6 6 6 6 5 5 5 6 6 6 6 6 7 6 5 5 5 6 6 6 6 6 6 6 6 7 7 7 7 7 7 8 9 9 9 9 9 9 9 10 10 10 10 10 10 10 11 11 12 12 12 11 11 11 11 11 11 12
8 8 8 8 8 8 8 8 7 6 6 6 6 6 5 5 4 4 5 6 6 6 6 7 6 5 6 6 6 6 6 6 6 6 6 6 7 7 7 7 7 7 8 9 9 9 9 9 9 9 9 9 9 9 10 10 10 11 11 11 11 11 11 10 10 10 10 10 11
8 8 8 8 9 9 8 8 7 7 6 5 5 5 5 5 4 4 4 5 6 6 6 6 6 6 6 6 6 6 5 6 6 7 7 6 7 7 7 8 7 8 8 9 10 10 10 11 10 10 9 9 9 9 10 10 10 10 10 10 10 10 10 10 10 10 10 11 11
8 8 8 8 8 8 8 8 7 7 6 5 5 5 5 5 5 5 5 5 6 6 6 6 6 6 6 7 6 6 5 5 6 6 7 7 7 7 8 8 8 9 9 10 10 11 11 11 11 10 9 9 9 10 10 10 10 10 10 10 10 10 10 11 11 11 11 11 11
8 8 8 7 7 7 8 7 7 7 6 6 6 6 5 5 5 6 6 6 6 6 6 7 7 7 7 6 7 6 6 5 6 6 7 7 7 8 8 8 8 8 9 9 10 10 10 10 10 9 9 8 9 9 9 9 9 10 10 9 9 10 11 12 12 11 11 10 10
7 7 6 6 7 7 7 7 7 7 7 7 7 7 6 6 6 6 6 6 6 7 7 7 7 7 6 6 6 6 6 5 6 6 6 7 7 7 8 7 8 8 8 9 9 9 9 9 9 9 9 8 8 9 9 9 9 10 10 10 10 10 10 9 9 8 8 8 8
6 6 5 6 6 6 6 7 6 6 7 7 7 7 7 7 7 7 7 7 7 7 7 6 6 6 6 6 6 6 6 6 6 6 7 7 7 7 8 7 8 9 9 8 8 8 9 8 8 8 8 8 9 9 9 9 9 9 9 9 9 8 6 4 4 4 4 5 4
5 5 5 4 5 5 6 6 6 6 7 7 7 7 7 7 7 7 7 7 7 7 6 5 5 5 6 5 6 6 6 7 7 7 7 7 7 8 8 8 8 8 8 7 7 6 6 5 5 6 7 7 8 8 9 9 9 9 8 9 7 5 3 2 1 1 1 1 1
5 4 4 3 4 4 5 5 6 6 7 7 7 7 7 7 7 7 7 8 8 7 7 6 5 5 5 5 6 6 7 7 8 8 8 8 8 8 8 8 8 8 7 6 4 3 2 2 3 4 5 6 7 8 8 9 9 8 8 8 6 4 3 3 3 2 1 2 2
5 5 4 4 4 4 5 6 6 6 6 6 6 6 6 6 6 6 7 7 7 7 7 6 6 5 4 5 6 6 7 7 7 8 8 8 8 8 8 7 7 7 5 2 2 2 3 4 4 4 5 6 7 7 7 7 7 7 7 7 6 5 5 5 4 3 2 2 3
5 5 5 5 5 5 6 6 6 6 6 6 6 6 5 4 3 4 5 5 6 5 5 6 5 4 4 5 6 7 7 7 7 7 8 8 8 8 8 7 6 5 3 0 1 2 3 5 6 6 5 5 6 7 6 5 5 6 6 5 5 5 5 5 4 4 3 3 3
5 5 5 5 6 6 6 6 6 6 6 6 6 5 4 2 2 3 3 4 4 4 4 4 4 4 3 4 6 7 7 7 7 7 7 7 8 8 8 7 6 4 1 1 1 2 4 5 6 6 6 5 6 6 6 5 4 4 4 3 3 3 4 4 4 4 4 3 3
6 6 5 6 6 6 6 6 6 6 5 4 3 2 1 1 1 1 2 3 4 4 4 3 3 3 4 5 6 6 7 8 7 7 7 7 7 7 7 7 6 3 1 0 2 3 4 4 5 5 5 5 4 4 4 4 3 3 2 2 2 2 2 3 4 4 3 3 3
6 5 5 6 6 6 6 6 5 4 3 1 1 2 3 2 1 1 2 4 4 5 4 4 4 4 5 6 6 6 7 7 7 7 7 7 7 7 7 7 6 4 1 0 2 3 3 3 3 3 4 4 4 3 3 3 3 2 2 2 2 2 2 3 4 4 4 4 3
4 5 5 5 6 6 6 5 4 3 1 1 1 1 2 2 3 4 4 5 6 6 6 6 6 6 7 7 6 7 7 7 6 6 6 7 7 7 7 8 7 4 1 1 2 2 2 2 1 1 1 1 1 2 2 2 2 1 1 1 1 2 2 3 4 4 5 5 4
3 4 4 5 5 5 5 4 3 2 2 2 2 3 3 5 6 6 6 6 6 7 7 8 8 8 8 8 8 8 7 7 6 6 6 6 7 7 7 7 6 4 2 1 1 1 1 0 1 1 2 2 1 1 1 1 1 1 1 2 1 1 2 2 2 3 4 4 4
3 3 4 5 5 5 4 3 3 3 3 3 3 4 4 5 6 6 6 6 7 8 8 9 8 8 8 8 8 8 8 7 6 6 5 6 6 6 6 6 5 3 2 2 2 2 1 2 2 3 3 3 2 2 2 2 2 2 2 3 3 3 2 2 2 2 3 3 3
3 4 4 5 5 4 3 3 3 3 3 4 4 4 5 5 5 5 6 6 7 7 8 9 8 8 8 8 8 8 6 4 4 4 4 5 5 6 5 4 3 2 2 3 3 3 3 3 3 4 4 3 2 2 2 3 3 3 3 3 4 4 4 3 2 2 1 1 2
3 4 5 5 5 4 4 3 4 4 4 5 5 5 6 6 6 7 7 7 7 8 8 8 8 8 7 7 7 6 5 4 4 3 3 4 5 5 5 5 3 2 2 3 3 3 4 4 4 5 4 3 2 2 3 3 3 3 4 4 4 4 4 4 3 2 2 1 2
3 4 5 5 5 4 4 4 4 4 5 5 6 6 7 8 8 8 8 8 8 8 8 8 8 8 7 7 4 3 3 4 3 3 3 4 4 5 6 6 4 3 3 3 3 4 4 5 5 5 4 3 2 2 3 3 3 4 4 4 4 4 4 4 3 3 3 2 2
3 4 4 5 5 5 5 5 5 5 5 6 6 7 7 8 8 8 8 8 8 9 9 9 9 8 8 7 5 4 4 5 4 3 3 3 4 5 6 6 5 4 4 4 4 4 5 5 5 5 4 3 3 3 3 3 3 3 4 4 4 4 4 3 3 3 3 3 3
2 3 4 4 5 5 5 5 5 6 6 6 6 6 7 7 7 7 7 7 8 9 9 9 9 8 7 6 5 5 5 5 5 5 4 5 4 5 6 6 5 4 3 3 4 5 5 6 6 5 4 3 3 3 3 3 3 3 3 3 3 3 3 3 3 3 3 4 4
2 3 4 5 5 5 5 5 6 6 6 6 6 6 6 7 7 6 6 6 7 8 8 8 8 7 5 5 5 5 4 5 5 5 5 5 4 4 5 5 4 4 3 3 4 5 6 6 6 5 4 2 3 3 3 3 4 4 3 3 3 3 3 3 3 2 3 4 5
4 3 4 5 5 5 5 5 5 5 5 5 5 5 6 6 6 5 5 5 6 7 7 7 7 6 5 4 5 5 4 4 4 4 4 4 4 3 3 3 3 4 4 3 4 5 6 6 6 5 4 2 2 3 3 3 4 4 4 3 3 3 3 3 3 3 3 4 5
4 4 4 4 4 4 4 5 4 4 4 4 4 5 6 6 6 5 4 5 5 6 6 6 6 6 5 4 5 4 3 4 4 3 3 3 3 2 2 2 3 3 4 4 4 5 6 6 6 6 5 3 3 3 3 3 4 4 4 4 3 3 3 3 3 3 3 4 4
Wind_Direction
223 222 222 222 222 223 224 225 224 226 228 231 232 232 232 232 233 233 233 231 231 229 226 223 221 220 218 216 213 211 209 207 207 208 209 212 216 216 214 213 213 214 216 219 221 223 226 227 229 231 233 234 235 236 236 235 235 236 238 239 241 243 245 247 249 249 247 245 246
223 223 223 221 221 222 224 225 222 221 223 227 230 231 232 233 233 233 233 232 232 231 230 228 224 223 221 219 217 214 211 208 208 208 209 212 217 218 218 216 215 215 217 219 220 221 223 224 226 228 231 232 232 233 233 232 232 235 236 236 236 236 237 239 243 245 246 246 246
223 223 223 223 222 223 224 225 223 221 221 224 227 229 232 234 234 235 234 232 232 232 231 230 227 225 224 222 218 215 213 212 211 210 211 213 216 218 219 220 218 218 218 219 219 219 220 220 222 224 228 231 231 231 231 230 230 234 237 237 236 236 235 236 238 239 239 240 240
223 224 224 224 224 224 225 227 226 224 223 223 225 228 230 233 234 235 236 236 234 232 231 230 229 227 224 223 218 214 212 213 216 217 217 216 216 217 218 220 220 219 218 218 218 217 217 216 219 222 225 229 231 232 232 230 228 230 234 236 237 237 237 238 236 234 233 233 234
223 223 224 226 226 226 228 230 231 231 229 226 226 226 227 229 231 233 235 235 234 233 232 232 232 230 227 226 222 219 216 214 216 220 223 222 220 218 217 219 221 222 220 218 216 215 214 213 217 222 225 227 230 232 233 232 228 227 228 231 234 236 238 241 240 238 234 231 229
224 224 226 228 229 230 232 233 234 235 235 233 231 229 227 226 227 228 230 233 235 238 240 240 240 237 233 231 228 225 222 219 219 224 228 231 229 225 223 223 225 226 225 221 218 216 215 214 219 224 226 228 231 233 232 231 230 229 228 228 229 232 236 240 243 243 240 235 233
227 227 227 228 229 231 232 232 234 236 236 236 235 233 231 229 228 228 231 234 238 240 243 245 242 239 236 231 230 227 225 222 223 226 230 235 237 237 236 235 234 234 233 231 227 223 221 220 226 230 232 232 235 233 230 228 229 230 231 230 226 227 231 236 239 240 239 238 237
231 230 230 229 230 231 232 233 234 234 235 235 235 235 234 235 234 233 234 236 239 240 240 242 239 239 239 237 237 236 234 233 229 227 227 231 234 238 241 242 242 242 241 240 239 237 234 232 235 237 239 240 241 238 234 230 231 233 235 237 236 234 233 236 237 236 236 236 238
229 230 231 231 232 233 234 234 236 237 237 237 237 237 238 241 241 241 240 239 240 240 238 235 235 239 242 244 245 246 247 246 244 240 236 234 235 237 239 241 242 243 244 244 245 246 245 245 244 244 244 244 244 242 239 234 236 238 240 243 243 242 241 240 239 239 240 240 242
223 223 223 225 227 229 232 234 238 240 241 241 241 241 242 245 247 248 249 251 251 246 239 234 236 240 243 245 248 250 253 256 256 254 252 248 246 244 244 244 245 246 247 248 249 249 250 250 249 248 247 247 248 248 246 242 242 243 244 245 246 247 248 248 247 247 248 248 247
222 220 219 219 219 220 223 228 233 236 238 241 242 243 244 245 246 249 254 266 262 254 247 243 242 243 244 245 246 248 249 251 253 255 256 256 254 253 251 250 250 251 251 251 252 252 252 251 252 252 252 252 252 252 252 249 248 246 246 246 246 247 248 249 249 251 251 251 249
222 221 219 217 215 213 215 220 225 229 232 235 237 239 240 241 239 240 245 251 252 252 251 251 246 244 244 245 245 246 246 246 248 250 251 253 253 252 252 251 250 251 251 251 251 251 251 251 252 253 255 255 255 255 255 254 251 250 248 247 246 245 245 245 245 246 247 247 246
220 220 218 214 211 209 211 217 221 224 226 228 230 232 232 232 229 226 227 233 238 244 246 245 240 241 244 247 248 249 249 248 248 249 250 251 251 251 251 250 249 249 249 249 247 247 247 249 251 253 255 256 256 255 255 256 254 252 251 249 248 247 247 246 245 246 247 248 248
214 215 214 210 206 207 211 216 220 222 223 224 224 224 224 223 216 213 214 220 225 230 233 230 225 226 230 236 243 247 250 251 251 252 253 254 253 252 252 251 250 249 249 248 246 244 245 247 249 251 253 254 254 254 254 254 254 253 252 251 250 249 249 249 248 249 251 252 254
209 210 209 206 205 208 213 217 220 222 221 221 220 218 216 214 206 202 204 211 215 217 219 220 219 215 212 215 225 233 239 243 245 248 250 251 250 250 250 251 251 251 250 250 248 246 245 246 247 249 250 252 252 253 253 252 252 252 252 251 251 251 251 251 250 250 251 252 254
206 206 205 205 207 211 215 218 220 220 220 219 216 212 210 210 201 197 198 205 207 207 208 213 214 208 201 200 209 217 225 231 234 239 243 246 246 247 248 249 250 251 251 252 251 249 247 246 247 248 249 250 251 251 251 251 251 252 252 251 251 251 251 251 251 250 250 251 253
207 206 205 205 209 214 217 220 222 222 220 219 213 210 209 210 202 197 196 201 202 202 203 206 206 203 197 195 198 205 213 221 226 230 234 239 243 245 247 249 250 251 253 255 255 254 252 250 249 249 249 250 251 251 250 250 250 250 251 251 251 251 251 251 250 251 251 251 253
210 208 207 207 211 215 218 221 223 224 223 219 214 212 210 210 205 199 197 199 202 201 200 201 200 201 201 200 199 201 206 214 221 226 231 236 241 246 249 251 253 255 256 258 259 259 258 256 254 252 251 250 250 250 249 249 249 249 250 250 251 252 252 252 251 251 251 251 252
214 212 210 210 213 215 217 220 222 224 224 221 217 215 213 210 205 200 200 203 206 204 201 200 200 202 205 207 205 203 206 213 222 229 235 240 244 248 251 254 255 257 258 259 259 258 258 256 254 252 250 248 248 248 248 247 247 247 247 248 249 250 252 253 252 251 250 249 249
218 215 214 213 213 215 217 219 220 220 220 218 215 215 213 208 204 205 206 208 210 210 209 207 207 207 209 211 212 212 213 216 224 232 238 243 246 247 250 252 254 256 257 259 259 258 257 257 256 254 251 249 248 248 248 247 246 245 245 245 245 246 247 248 248 248 247 247 247
224 220 218 215 213 214 216 217 217 217 216 214 212 210 208 205 205 208 211 212 213 214 215 216 215 214 215 215 218 220 222 223 228 234 239 243 245 246 249 251 253 255 258 260 262 264 265 266 266 264 261 257 254 251 250 248 247 245 243 242 240 240 240 241 241 242 244 247 249
232 228 224 220 216 215 215 216 215 215 214 213 210 207 204 202 204 207 211 214 215 217 219 221 221 221 222 223 225 227 229 232 233 236 240 243 245 247 249 250 252 253 254 256 260 265 269 272 273 273 272 269 264 259 255 251 249 247 245 242 240 239 238 238 242 246 250 254 257
244 240 234 227 222 219 217 217 215 214 213 213 210 206 202 201 202 204 207 211 216 219 222 225 226 227 229 231 233 235 237 240 240 241 242 244 247 249 250 249 249 249 250 251 254 257 261 265 269 273 276 278 275 271 266 262 258 255 253 251 248 245 243 241 252 260 264 266 268
252 248 242 236 229 226 224 223 220 218 217 216 214 209 205 202 200 200 203 208 213 216 220 225 231 234 235 236 237 238 240 243 245 247 247 247 248 249 250 250 248 248 247 246 246 248 253 263 271 277 281 283 281 278 274 270 268 266 266 265 260 252 237 216 218 241 279 325 352
249 246 242 239 235 232 231 231 230 229 227 225 222 218 213 208 203 201 202 206 209 213 216 221 229 236 239 239 239 240 241 244 247 249 251 251 249 249 249 250 248 246 244 241 230 217 213 235 259 272 278 282 281 279 275 269 267 267 268 268 257 238 211 191 175 152 109 80 63
242 239 236 234 235 237 237 237 239 240 241 239 235 231 227 219 212 208 207 209 210 212 214 218 223 230 237 240 241 242 243 244 246 248 250 252 251 249 248 248 250 248 244 228 176 173 195 218 229 243 259 270 273 275 273 270 265 261 258 252 237 218 201 190 177 160 136 111 97
237 233 231 230 233 236 238 240 243 246 249 248 246 243 239 232 226 222 221 221 221 219 219 222 222 224 230 237 241 242 243 244 245 246 247 249 250 250 249 249 251 254 256 246 166 210 230 236 234 234 240 256 263 267 269 270 266 260 251 237 221 208 198 190 175 161 147 132 121
234 230 228 227 230 233 236 239 242 245 247 248 249 247 243 231 229 236 243 246 244 240 237 236 231 228 229 234 237 239 241 244 245 246 246 248 250 251 252 252 254 258 270 48 270 260 257 252 244 237 234 244 259 266 269 270 266 260 250 232 215 201 187 170 157 152 149 142 132
230 226 223 224 226 229 232 236 239 241 245 250 262 277 322 74 189 233 252 260 257 254 250 247 241 237 234 235 236 237 238 240 241 243 246 249 251 253 255 258 260 262 275 71 273 269 265 260 253 244 237 238 252 264 271 272 264 254 243 233 217 193 169 151 149 151 152 146 137
228 222 217 219 222 224 227 229 233 238 246 289 42 56 65 83 119 196 228 241 244 246 247 248 244 240 239 239 238 237 236 234 234 236 240 244 248 251 253 255 256 256 247 205 260 266 268 267 262 253 244 237 247 258 266 272 262 248 235 227 209 183 162 150 153 157 157 153 141
233 224 218 219 223 224 225 224 222 220 204 112 105 118 149 179 195 205 213 222 230 235 239 242 241 241 241 243 242 240 238 235 233 233 234 237 242 246 250 253 252 249 233 207 249 260 267 275 280 276 263 238 255 267 277 284 274 257 239 225 189 167 158 154 158 160 161 159 152
243 232 226 227 230 229 226 218 209 198 183 169 173 187 202 212 217 217 217 218 224 230 234 236 237 238 240 243 243 242 240 238 236 235 237 239 243 245 247 251 250 244 220 206 230 235 232 202 77 67 64 59 50 30 15 14 8 24 41 49 69 102 129 147 156 161 163 164 161
245 235 233 235 237 235 227 212 203 196 193 194 199 205 214 224 228 228 225 223 225 228 231 233 233 234 236 239 240 242 241 240 238 238 240 243 246 247 248 252 249 238 211 204 206 194 166 135 106 88 77 67 62 58 55 56 49 51 55 54 52 52 60 88 122 145 157 163 163
235 230 232 236 237 235 225 206 196 193 196 204 211 214 217 226 231 233 232 231 231 231 232 233 233 233 233 235 237 238 238 233 230 232 237 240 244 245 244 243 240 221 196 200 196 180 160 141 123 107 94 80 76 79 81 77 71 68 68 64 56 47 43 45 58 79 105 131 146
232 226 229 234 234 230 220 204 194 193 199 210 217 220 221 224 227 230 232 233 234 236 236 236 235 234 233 234 236 237 236 232 227 227 229 232 235 236 234 231 221 198 184 198 191 178 163 150 137 127 117 104 93 89 88 85 81 79 77 74 67 58 48 40 42 47 58 81 115
233 225 227 232 231 225 216 204 197 199 206 215 220 223 226 228 228 228 228 227 230 234 236 237 235 234 233 231 228 223 221 225 222 222 225 231 234 233 230 225 210 191 182 194 189 179 168 157 146 137 128 117 106 95 92 91 90 88 85 82 76 67 57 44 37 36 40 50 76
232 221 223 230 228 222 213 204 202 206 214 221 225 227 230 232 233 231 228 223 225 228 231 231 230 229 227 224 217 216 217 216 207 205 211 223 230 230 227 220 205 188 180 188 186 181 173 164 155 148 141 132 124 116 109 105 102 98 93 87 81 74 66 56 46 40 37 37 47
246 224 222 227 226 220 212 205 207 212 219 225 230 233 235 236 238 235 231 224 225 227 228 227 226 224 222 217 211 210 210 210 200 195 199 212 222 227 225 215 198 184 177 184 184 182 178 172 167 162 158 147 142 135 128 122 117 112 105 96 87 78 73 69 62 54 48 43 46
284 241 228 227 225 219 213 208 211 215 220 227 233 237 239 240 242 240 234 228 230 232 232 231 228 225 219 214 212 210 206 205 196 190 191 202 213 224 225 215 194 181 177 182 185 184 182 179 173 170 166 157 153 147 140 135 129 124 118 108 100 90 84 81 79 74 65 58 54
301 265 241 232 226 220 215 212 213 215 218 225 233 239 243 245 246 244 238 233 235 238 240 240 237 232 225 222 223 220 215 210 198 187 185 193 204 218 223 214 189 178 177 183 189 188 186 182 177 173 170 167 162 154 147 143 137 133 130 124 118 109 101 96 95 92 85 74 65
309 282 258 241 231 223 218 215 216 218 220 223 229 237 244 248 249 246 240 235 237 240 243 246 243 237 229 228 231 230 227 225 212 194 178 181 192 202 209 203 187 181 180 185 193 194 192 186 181 177 175 174 169 161 154 149 144 142 141 137 132 126 120 114 109 103 96 89 81